Weather History for Akron, CO

Change the Weather History Date:

Thursday, December 27, 2012

  Actual Average Record
Temperature  
Mean Temperature 11 °F 28 °F  
Max Temperature 19 °F 40 °F 73 °F (1980)
Min Temperature 2 °F 16 °F -10 °F (1941)
Degree Days  
Heating Degree Days 54    
Month to date heating degree days 917  
Cooling Degree Days 0    
Month to date cooling degree days 0  
Moisture  
Dew Point 7 °F    
Average Humidity 83    
Maximum Humidity 92    
Minimum Humidity 73    
Precipitation  
Precipitation T in 0.01 in 0.33 in (1987)
Month to date precipitation 0.15 0.36  
Year to date precipitation 8.00 16.70  
Sea Level Pressure  
Sea Level Pressure 29.86 in    
Wind  
Wind Speed 9 mph (WNW)    
Max Wind Speed 21 mph    
Max Gust Speed 24 mph    
Visibility 8 miles    
Events Rain , Snow    
T = Trace of Precipitation, MM = Missing Value Source: NWS Daily Summary

Daily Weather History Graph

Daily Weather History Graph

Search for Another Location

Airport:

Trip Planner

Search our weather history database for the weather conditions in past years. The results will help you decide how hot, cold, wet, or windy it might be!

Date:

Astronomy

Dec. 27, 2012 Rise Set
Actual Time 7:14 AM MST 4:34 PM MST
Civil Twilight 6:43 AM MST 5:04 PM MST
Nautical Twilight 6:09 AM MST 5:39 PM MST
Astronomical Twilight 5:36 AM MST 6:12 PM MST
Moon 4:19 PM MST (12/27) 6:26 AM MST (12/27)
Length of Visible Light 10h 21m
Length of Day
9h 19m
Full, 100% of the Moon is Illuminated
Dec 27
Full
Dec 28
Full
Jan 4
Last Quarter
Jan 11
New
Jan 18
First Quarter

Hourly Weather History & Observations

Time (MST) Temp. Windchill Dew Point Humidity Pressure Visibility Wind Dir Wind Speed Gust Speed Precip Events Conditions
12:20 AM 12.2 °F 4.3 °F 8.6 °F 85% 29.64 in 7.0 mi SSE 4.6 mph - N/A   Overcast
12:53 AM 12.0 °F 2.7 °F 9.0 °F 88% 29.82 in 10.0 mi ESE 5.8 mph - N/A   Overcast
1:36 AM 10.4 °F -2.4 °F 8.6 °F 92% 29.62 in 10.0 mi SSE 9.2 mph - N/A   Overcast
1:53 AM 10.9 °F 4.7 °F 8.1 °F 88% 29.81 in 10.0 mi SSE 3.5 mph - N/A   Mostly Cloudy
2:04 AM 10.4 °F - 8.6 °F 92% 29.63 in 10.0 mi Calm Calm - N/A   Overcast
2:53 AM 7.0 °F -3.3 °F 3.9 °F 87% 29.85 in 8.0 mi West 5.8 mph - N/A   Overcast
3:53 AM 6.1 °F -5.6 °F 3.9 °F 91% 29.85 in 7.0 mi WSW 6.9 mph - N/A   Mostly Cloudy
4:53 AM 10.0 °F -5.2 °F 7.0 °F 87% 29.82 in 7.0 mi West 12.7 mph - N/A   Overcast
5:33 AM 10.4 °F -6.0 °F 6.8 °F 85% 29.64 in 1.8 mi WNW 15.0 mph - N/A   Overcast
5:44 AM 10.4 °F -6.6 °F 6.8 °F 85% 29.64 in 1.2 mi WNW 16.1 mph 24.2 mph N/A Snow Blowing Snow
5:53 AM 10.0 °F -7.1 °F 8.1 °F 92% 29.86 in 1.8 mi WNW 16.1 mph - 0.00 in Rain Light Freezing Rain
6:11 AM 10.4 °F -6.6 °F 8.6 °F 92% 29.64 in 3.0 mi West 16.1 mph - 0.00 in Rain Light Freezing Rain
6:18 AM 10.4 °F -6.6 °F 8.6 °F 92% 29.65 in 4.0 mi West 16.1 mph - 0.00 in   Overcast
6:53 AM 10.0 °F -7.1 °F 7.0 °F 87% 29.84 in 8.0 mi West 16.1 mph - 0.00 in   Overcast
7:53 AM 8.1 °F -8.4 °F 5.0 °F 87% 29.86 in 9.0 mi West 13.8 mph - N/A   Partly Cloudy
8:53 AM 8.1 °F -9.0 °F 5.0 °F 87% 29.90 in 10.0 mi West 15.0 mph - N/A   Clear
9:53 AM 12.0 °F -4.5 °F 8.1 °F 84% 29.91 in 10.0 mi WNW 16.1 mph - N/A   Clear
10:53 AM 14.0 °F -3.0 °F 9.0 °F 80% 29.91 in 10.0 mi NW 18.4 mph - N/A   Clear
11:53 AM 14.0 °F 2.9 °F 9.0 °F 80% 29.91 in 10.0 mi NNW 8.1 mph - N/A   Clear
12:53 PM 15.1 °F 2.5 °F 9.0 °F 77% 29.89 in 9.0 mi North 10.4 mph - N/A   Clear
1:53 PM 18.0 °F 6.1 °F 10.9 °F 74% 29.89 in 10.0 mi North 10.4 mph - N/A   Clear
2:53 PM 18.0 °F 11.1 °F 10.0 °F 71% 29.93 in 10.0 mi North 4.6 mph - N/A   Clear
3:53 PM 17.1 °F - 10.0 °F 74% 29.96 in 10.0 mi Calm Calm - N/A   Clear
5:53 PM 15.1 °F 4.2 °F 9.0 °F 77% 30.00 in 10.0 mi NW 8.1 mph - N/A   Overcast
6:53 PM 12.0 °F 1.5 °F 7.0 °F 80% 30.04 in 10.0 mi WNW 6.9 mph - N/A   Overcast
7:53 PM 12.9 °F 1.6 °F 8.1 °F 81% 30.05 in 10.0 mi NW 8.1 mph - N/A   Scattered Clouds
8:53 PM 9.0 °F -0.9 °F 6.1 °F 88% 30.06 in 10.0 mi WNW 5.8 mph - N/A   Clear
9:53 PM 7.0 °F -7.5 °F 3.9 °F 87% 30.07 in 10.0 mi West 10.4 mph - N/A   Clear
10:53 PM 5.0 °F -10.8 °F 1.9 °F 87% 30.08 in 9.0 mi West 11.5 mph - N/A   Clear
11:53 PM 6.1 °F -8.7 °F 3.0 °F 87% 30.09 in 10.0 mi WNW 10.4 mph - N/A   Clear